FW0019 Weather Reports


time (UTC)temp
F
wind
direction
speed
knots
gust
knots
rain 1hr
in
rain 24hr
in
rain mn
in
humidity
%
barometer
mb
20260502203011 73 306 10.4 15.6 0.00 0.00 0.00 23 877.8
20260502201522 74 310 8.7 13.9 0.00 0.00 0.00 27 877.7
20260502200010 73 295 9.6 14.8 0.00 0.00 0.00 28 877.9
20260502194512 73 261 10.4 15.6 0.00 0.00 0.00 27 877.9
20260502193009 73 239 7.8 15.6 0.00 0.00 0.00 28 878.1
20260502191508 73 277 7.8 15.6 0.00 0.00 0.00 25 878.3
20260502190009 72 261 7.8 14.8 0.00 0.00 0.00 30 878.4
20260502184507 73 266 7.8 16.5 0.00 0.00 0.00 29 878.5
20260502183003 72 254 8.7 15.6 0.00 0.00 0.00 28 878.4
20260502181502 72 270 9.6 16.5 0.00 0.00 0.00 27 878.5
20260502163052 70 279 8.7 15.6 0.00 0.00 0.00 31 878.7
20260502161550 69 298 10.4 16.5 0.00 0.00 0.00 30 878.6
20260502151547 66 277 5.2 7.8 0.00 0.00 0.00 37 878.7
20260502123015 42 298 2.6 4.3 0.00 0.00 0.00 84 877.7
20260502121515 42 304 3.5 5.2 0.00 0.00 0.00 85 877.7
20260502114510 42 293 2.6 5.2 0.00 0.00 0.00 82 877.7
20260502113007 43 309 2.6 5.2 0.00 0.00 0.00 83 877.5
20260502111506 44 281 3.5 5.2 0.00 0.00 0.00 82 877.5
20260502110006 44 283 2.6 4.3 0.00 0.00 0.00 84 877.4
20260502104504 43 309 3.5 7.8 0.00 0.00 0.00 82 877.5
20260502103004 43 302 1.7 5.2 0.00 0.00 0.00 81 877.4
20260502101600 44 275 1.7 4.3 0.00 0.00 0.00 80 877.4
20260502100103 44 292 2.6 5.2 0.00 0.00 0.00 81 877.4
20260502071531 50 304 0.0 0.0 0.00 0.00 0.00 71 878.1
20260502070030 50 304 0.0 2.6 0.00 0.00 0.00 71 878.1
20260502064543 51 304 1.7 3.5 0.00 0.00 0.00 75 878.1
20260502063034 52 282 2.6 3.5 0.00 0.00 0.00 75 878.2
20260502061530 53 296 0.0 0.0 0.00 0.00 0.00 70 878.1
20260502060029 54 295 1.7 3.5 0.00 0.00 0.00 73 878.1
20260502054530 56 255 0.0 5.2 0.00 0.00 0.00 71 878.0
20260502053026 57 113 0.0 6.1 0.00 0.00 0.00 59 878.0
20260502051531 57 79 1.7 4.3 0.00 0.00 0.00 61 877.9
20260502050026 57 87 1.7 4.3 0.00 0.00 0.00 64 878.0
20260502044534 58 132 0.9 3.5 0.00 0.00 0.00 68 878.0
20260502043025 57 128 1.7 3.5 0.00 0.00 0.00 73 877.9
20260502041527 57 142 1.7 3.5 0.00 0.00 0.00 72 877.7
20260502040036 58 107 1.7 4.3 0.00 0.00 0.00 70 877.7
20260502034527 58 123 1.7 5.2 0.00 0.00 0.00 69 877.5
20260502033023 59 86 2.6 6.1 0.00 0.00 0.00 69 877.4
20260502031523 58 119 3.5 6.1 0.00 0.00 0.00 72 877.3
20260502030026 58 133 3.5 7.0 0.00 0.00 0.00 71 877.2
20260502024525 59 147 2.6 7.0 0.00 0.00 0.00 69 877.1
20260502023021 60 117 2.6 4.3 0.00 0.00 0.00 63 877.0
20260502021521 62 114 3.5 7.8 0.00 0.00 0.00 71 876.9
20260502020022 64 103 3.5 7.8 0.00 0.00 0.00 66 876.9
20260502014537 64 111 4.3 8.7 0.00 0.00 0.00 62 876.8
20260502013019 65 111 5.2 8.7 0.00 0.00 0.00 60 876.7
20260502011519 66 158 6.1 11.3 0.00 0.00 0.00 61 876.8
20260502010019 68 129 6.1 11.3 0.00 0.00 0.00 57 876.8
20260502004523 68 101 6.1 11.3 0.00 0.00 0.00 53 876.7
20260502003017 68 99 5.2 12.2 0.00 0.00 0.00 52 876.7
20260502001528 69 142 6.1 12.2 0.00 0.00 0.00 53 876.7
20260502000017 69 147 7.0 12.2 0.00 0.00 0.00 52 876.7
20260501234518 69 130 7.0 13.9 0.00 0.00 0.00 47 876.8
20260501233017 70 129 7.8 12.2 0.00 0.00 0.00 47 876.7
20260501231515 70 138 5.2 13.0 0.00 0.00 0.00 48 876.8
20260501230015 70 152 7.0 13.9 0.00 0.00 0.00 48 876.9
20260501224517 70 126 8.7 13.0 0.00 0.00 0.00 45 877.1
20260501223018 70 124 7.0 12.2 0.00 0.00 0.00 47 877.1
20260501221513 70 136 8.7 13.0 0.00 0.00 0.00 45 877.2
20260501220013 71 142 7.8 13.9 0.00 0.00 0.00 44 877.3
20260501214512 71 161 6.1 13.9 0.00 0.00 0.00 40 877.4
20260501213012 71 98 7.8 12.2 0.00 0.00 0.00 42 877.7
20260501211511 70 86 7.0 12.2 0.00 0.00 0.00 45 877.7
20260501210027 71 86 7.0 13.9 0.00 0.00 0.00 46 877.7
20260501204510 71 163 7.0 14.8 0.00 0.00 0.00 45 877.7